Location: Te Maire Creek
(41.1333°S, 175.9167°E)
Time: 14:39:04
(UTC+00:00)

Cosmos 1844 Rocket - Pass Details

Date: 19 May 2024
Orbit: 825 x 842 km, 71.0° (Epoch: 11 June)

Event Time Altitude Azimuth Distance (km) Brightness Sun altitude
Exits shadow 17:05:21 11° 187° (S) 2,438 5.0 -25.5°
Maximum altitude 17:10:25 36° 122° (ESE) 1,333 4.1 -24.5°
Drops below altitude 10° 17:15:36 10° 56° (NE) 2,469 6.0 -23.6°
Sets 17:18:14 0° 47° (NE) 3,395 6.7 -23.1°
